CAPE
2651 2799 3064 2224 2769 3176 2959 3224 3296 3288 3921 2826 2824 2824 2918 3126 3328 3426 3086 3035 3134 2921 2593 1926 1741 1489 774 452 325 423 509 410 200 13 0 0 0 0 0 0 0 0 0
3136 3574 3205 2022 2532 2399 3277 2924 2816 3587 3014 3036 2918 3040 3008 3097 3291 3374 3181 2347 2594 2777 2747 2627 2116 1661 1428 1504 672 1095 316 345 470 334 123 44 11 0 0 0 0 0 0
3292 2970 2559 1785 1863 2076 2494 2955 3092 3500 2991 2408 3109 3457 3320 3224 3371 3424 3503 2987 2604 2680 2745 2994 2703 2343 2555 1554 1728 896 465 291 136 320 338 250 182 1 0 0 0 0 0
2971 2707 2827 2016 2014 1661 2777 3202 3211 3540 3418 3229 3464 3579 3289 3254 3270 3506 3482 3592 3326 2882 3400 3540 3191 3248 3197 2590 1695 1819 1024 824 531 354 332 317 327 194 0 0 0 0 0
2965 3002 3121 3234 3143 2993 3134 3410 3544 3488 3199 3536 3539 3456 3347 2931 2388 3434 3280 3522 3906 3541 3437 3286 3515 3082 2243 2099 1828 2361 2148 827 864 1054 808 475 383 358 234 0 0 0 0
2971 3271 3581 3851 3720 3731 3697 3977 3970 4128 4030 4067 3732 3613 3455 2143 1532 1565 1788 2889 3400 3523 3665 3704 3646 2832 2221 2089 1755 1200 1086 1308 1074 1124 957 1299 804 554 330 257 43 0 1
2853 3448 3740 4029 4023 4016 4069 4149 4448 4331 4477 4358 4279 3930 3572 3547 1663 1207 1212 2525 2691 2666 2839 3176 3098 2106 2316 3103 2141 1715 1186 816 1143 1101 1131 862 838 1025 1048 241 122 57 0
3009 3241 3641 3886 4100 4141 4227 4249 4308 4417 4467 4461 4401 4362 4306 3823 2455 1582 1151 1689 2530 2971 2862 2856 3329 3479 3768 3530 3068 2060 1425 948 648 1119 1203 979 881 785 800 420 169 235 0
3418 3312 3630 3842 3944 4133 4192 4277 4293 4259 4365 4422 4325 4409 4430 4316 2655 1975 1461 1950 1898 2482 2715 3333 3497 3646 3337 2917 3077 3213 2152 1337 689 619 1178 1211 1012 700 466 507 285 136 0
3437 3575 3664 4041 4106 4212 4269 4318 4392 4396 4274 3426 3974 4260 3810 4406 3441 2695 2026 1970 2381 2118 2935 3214 2477 2452 2859 2661 2511 3042 2293 1504 866 706 1011 1404 1249 912 530 400 354 125 0
3745 3749 4067 4093 4309 4321 4462 4545 4523 4474 3576 4210 3900 4285 4303 4137 4115 3016 2493 2404 2222 1934 2011 2114 2237 1897 2062 2232 2222 2990 2424 1530 963 1049 1163 1336 1272 1555 797 612 143 3 0
3801 4129 4070 4191 3794 3615 4516 4573 4609 4599 4479 4213 4523 3867 3321 4466 3124 3135 2619 2331 2394 2591 2571 1994 1999 1316 1767 1914 2001 1900 1828 1393 1333 1355 1258 1421 1282 1415 945 425 300 0 0
4311 4215 4162 4179 3962 3986 4375 4410 4018 4353 3496 3455 3106 2971 2923 2918 3472 2637 2361 2434 2414 2278 2847 2085 1713 1515 1713 1880 1921 1814 1636 1519 1425 1490 1591 1450 1251 1187 774 648 27 0 0
3571 3918 4053 4057 3805 4018 2857 3248 3228 3198 3069 3137 2824 2797 2305 2800 2816 2777 1914 2198 2354 2144 2038 1941 1707 1486 1317 1244 1217 1271 1386 1479 1744 1899 1593 1409 1177 1157 873 425 105 0 0
3078 2970 3192 2844 2904 3171 3400 2854 2911 3381 2652 2772 2826 2442 2338 1995 1811 1825 1900 2961 2675 2438 2077 2248 1552 1215 1023 878 975 1310 1648 1902 2040 1904 1550 1406 1226 1123 513 265 27 0 0
2520 2642 2593 2519 2591 2683 2903 3102 2442 2024 2097 1966 1670 1618 2051 1474 1340 1130 1140 1094 1833 1899 1966 2419 2199 1747 1353 1064 1139 1561 1989 2203 2073 1776 1562 1404 1286 873 487 208 0 0 0
2793 2376 2671 2299 2653 2708 2697 2670 2833 2214 1605 1584 1534 1495 1493 1522 1631 1352 1289 1310 1479 1533 1956 1978 2112 2227 1817 1459 1506 1738 2055 2517 2052 1886 1656 1398 1313 1012 539 318 0 0 0
1343 1932 2300 2518 2257 2281 2317 2408 2274 2035 2170 2382 1449 1359 1532 1536 1469 1467 1411 1282 1354 1353 1569 1940 2172 2534 2113 1925 1747 1974 2054 2191 1871 1909 1816 1293 1126 1038 958 436 0 0 0
850 1512 1683 1886 2366 1945 2003 1998 1954 1929 1805 1580 1654 1649 1634 1495 1352 1301 1235 1194 1650 1765 1904 1966 1936 2324 2578 1872 1959 1786 1968 2044 2397 1738 1505 1054 1414 981 977 546 0 0 0
995 1033 1084 1191 1465 1564 1740 2425 2656 3097 2935 2183 2049 1954 1999 2198 1909 1230 1059 961 1341 1817 2290 2909 3107 2343 2063 1976 2003 1940 1813 1887 1683 1900 1125 1121 1421 1196 711 223 0 0 0
176 393 683 767 1139 1367 1276 1663 1730 1734 1821 1926 2156 1787 1918 2864 3017 3138 2534 2333 2060 2306 2771 3080 2905 2229 1978 2274 2143 2001 2045 1966 1249 987 1050 854 923 764 611 0 0 0 0
72 152 190 156 353 490 1001 1098 1346 1349 1779 1893 1173 1334 1822 1640 2237 2163 2442 2931 2589 2477 2373 2297 2002 2059 2272 1942 1676 1182 946 994 808 933 1019 820 620 488 6 0 0 0 0
0 0 8 1 60 136 302 327 411 575 513 683 779 899 993 1036 1368 1602 1618 1824 1902 2030 1786 2036 2305 2285 2241 1657 1065 788 494 481 615 641 776 811 227 103 0 0 0 0 0
0 0 0 0 3 20 82 77 117 229 174 129 251 462 693 1179 1347 1397 1390 1362 1342 1708 1668 2124 2404 2155 1516 1101 935 624 270 347 613 614 743 442 186 54 0 0 0 0 0
0 0 0 6 0 0 0 0 0 12 18 20 11 67 128 260 530 680 1405 1346 1419 1408 1590 1840 2193 2060 1624 1062 735 535 491 287 439 582 544 81 325 291 0 0 0 0 0
0 0 0 0 0 0 0 10 0 1 0 0 0 1 24 122 320 629 611 921 897 913 1227 1584 1243 1794 1418 964 706 535 358 152 314 583 316 350 420 311 0 0 0 0 0
CIN
-0 -0 -0 -22 -7 -0 -0 -0 -0 -0 -5 -44 -41 -25 -14 -7 -6 -6 -16 -8 -19 -42 -67 -151 -184 -220 -310 -284 -265 -232 -211 -185 -163 -103 -0 -0 -0 -0 -0 -0 -0 -0 -0
-0 -0 -0 -41 -13 -12 -0 -9 -20 -1 -38 -55 -52 -32 -19 -13 -8 -8 -14 -41 -33 -38 -50 -83 -146 -199 -235 -229 -347 -227 -254 -234 -179 -153 -133 -122 -127 -0 -0 -0 -0 -0 -0
-0 -0 -7 -50 -52 -41 -19 -3 -13 -6 -38 -79 -49 -32 -21 -14 -7 -9 -10 -25 -43 -39 -42 -38 -77 -118 -121 -212 -160 -241 -257 -276 -262 -214 -155 -122 -86 -2 -0 -0 -0 -0 -0
-0 -0 -0 -40 -43 -74 -11 -1 -4 -6 -17 -33 -26 -29 -45 -24 -19 -16 -17 -16 -29 -45 -16 -21 -44 -61 -68 -87 -161 -89 -220 -176 -226 -232 -222 -157 -98 -77 -0 -0 -0 -0 -0
-0 -0 -0 -0 -2 -6 -3 -0 -0 -4 -33 -19 -20 -31 -47 -67 -92 -23 -45 -28 -11 -30 -43 -59 -50 -113 -168 -150 -140 -49 -66 -278 -194 -97 -111 -143 -92 -58 -39 -0 -0 -0 -0
-0 -0 -0 -0 -0 -0 -0 -0 -0 -0 -0 -0 -11 -22 -38 -117 -167 -185 -167 -64 -32 -29 -33 -48 -72 -150 -184 -200 -226 -267 -214 -171 -152 -96 -85 -12 -43 -26 -13 -7 -21 -0 -0
-4 -0 -0 -0 -0 -0 -0 -0 -0 -0 -0 -0 -0 -2 -32 -58 -193 -232 -243 -124 -92 -97 -100 -81 -96 -155 -154 -57 -201 -244 -270 -298 -177 -151 -78 -57 -26 -0 -0 -6 -4 -0 -0
-26 -5 -2 -1 -0 -0 -0 -0 -0 -0 -0 -0 -0 -0 -0 -32 -152 -231 -271 -233 -128 -115 -129 -133 -107 -107 -42 -35 -72 -173 -275 -379 -354 -152 -64 -62 -37 -8 -0 -4 -3 -0 -0
-27 -30 -5 -3 -3 -1 -1 -1 -0 -0 -0 -0 -0 -0 -0 -11 -140 -206 -253 -181 -178 -166 -148 -111 -116 -117 -120 -96 -74 -55 -141 -274 -393 -330 -88 -41 -45 -46 -14 -3 -10 -1 -0
-74 -36 -19 -2 -0 -0 -0 -1 -3 -0 -1 -17 -1 -0 -25 -4 -72 -153 -206 -174 -112 -145 -100 -108 -200 -222 -173 -169 -164 -72 -135 -213 -310 -305 -167 -50 -16 -19 -30 -26 -6 -3 -0
-14 -11 -1 -0 -0 -0 -0 -0 -0 -0 -15 -0 -4 -0 -0 -3 -18 -103 -160 -153 -144 -129 -116 -98 -89 -121 -170 -202 -194 -87 -125 -201 -264 -213 -138 -58 -26 -0 -9 -1 -39 -0 -0
-24 -10 -5 -0 -4 -3 -0 -0 -0 -0 -0 -0 -0 -6 -7 -0 -41 -64 -143 -173 -193 -123 -118 -106 -99 -213 -247 -189 -201 -196 -190 -223 -212 -163 -136 -44 -33 -0 -5 -15 -11 -0 -0
-2 -6 -1 -0 -0 -0 -0 -0 -0 -0 -4 -2 -6 -11 -7 -3 -0 -79 -145 -177 -200 -197 -167 -194 -209 -202 -234 -227 -222 -235 -225 -213 -203 -132 -83 -61 -40 -15 -5 -6 -31 -0 -0
-46 -24 -4 -0 -2 -0 -12 -10 -13 -6 -6 -10 -1 -2 -6 -0 -4 -3 -85 -132 -144 -203 -259 -297 -309 -333 -376 -370 -341 -328 -288 -243 -143 -91 -91 -67 -56 -8 -0 -12 -59 -0 -0
-63 -61 -35 -40 -27 -9 -15 -23 -14 -10 -11 -2 -3 -11 -0 -0 -2 -3 -9 -19 -79 -125 -228 -207 -304 -344 -360 -375 -386 -297 -223 -162 -122 -87 -82 -65 -36 -5 -23 -47 -18 -0 -0
-81 -51 -49 -51 -41 -39 -22 -15 -59 -65 -45 -62 -36 -19 -4 -12 -10 -29 -54 -65 -46 -56 -118 -108 -147 -253 -333 -386 -306 -240 -188 -118 -112 -104 -80 -56 -25 -10 -27 -52 -0 -0 -0
-8 -54 -9 -32 -4 -0 -9 -10 -19 -67 -116 -82 -68 -90 -89 -38 -38 -38 -114 -158 -137 -131 -122 -124 -117 -112 -246 -295 -234 -172 -174 -74 -89 -61 -54 -49 -22 -5 -14 -31 -0 -0 -0
-108 -36 -30 -0 -0 -0 -0 -3 -11 -3 -1 -20 -64 -113 -107 -104 -112 -69 -78 -101 -160 -195 -210 -139 -102 -51 -156 -185 -155 -147 -111 -63 -64 -43 -24 -40 -18 -16 -0 -11 -0 -0 -0
-165 -51 -41 -29 -5 -3 -0 -0 -0 -0 -0 -0 -0 -47 -33 -88 -158 -174 -193 -232 -150 -132 -110 -116 -136 -74 -51 -133 -119 -145 -83 -34 -9 -40 -42 -71 -4 -12 -0 -5 -0 -0 -0
-69 -67 -64 -76 -52 -53 -39 -25 -11 -32 -22 -0 -0 -0 -12 -10 -40 -158 -226 -270 -225 -129 -44 -0 -3 -63 -96 -90 -73 -66 -53 -27 -39 -16 -68 -51 -12 -4 -5 -46 -0 -0 -0
-124 -102 -61 -40 -53 -54 -76 -43 -87 -66 -44 -18 -14 -22 -36 -12 -0 -0 -42 -22 -49 -48 -6 -0 -0 -44 -72 -29 -24 -23 -10 -9 -65 -98 -73 -70 -45 -38 -14 -0 -0 -0 -0
-87 -63 -34 -42 -43 -72 -30 -46 -50 -59 -42 -40 -85 -115 -41 -22 -1 -6 -11 -15 -1 -15 -21 -29 -47 -39 -12 -32 -57 -119 -142 -123 -143 -99 -70 -73 -72 -67 -73 -0 -0 -0 -0
-0 -0 -30 -2 -6 -50 -53 -57 -69 -47 -47 -75 -71 -73 -49 -14 -10 -11 -17 -24 -27 -22 -39 -22 -6 -4 -1 -38 -96 -94 -185 -219 -157 -118 -80 -61 -128 -118 -0 -0 -0 -0 -0
-0 -0 -0 -0 -0 -16 -16 -37 -31 -32 -35 -149 -102 -89 -51 -28 -2 -0 -4 -20 -43 -26 -29 -8 -0 -3 -36 -51 -79 -110 -187 -206 -101 -78 -62 -87 -121 -122 -0 -0 -0 -0 -0
-0 -0 -0 -2 -0 -0 -0 -0 -0 -23 -46 -53 -72 -79 -69 -98 -129 -15 -0 -2 -12 -28 -20 -8 -0 -0 -9 -41 -80 -96 -88 -190 -104 -53 -42 -145 -70 -39 -0 -0 -0 -0 -0
-0 -0 -0 -0 -0 -0 -1 -11 -0 -1 -0 -0 -0 -55 -128 -85 -39 -4 -22 -7 -21 -43 -37 -6 -11 -0 -0 -21 -41 -64 -83 -190 -96 -17 -57 -44 -30 -21 -0 -0 -0 -0 -0
Wind_Speed
9 10 9 8 8 8 9 9 9 9 5 5 3 3 2 3 5 6 10 9 7 10 13 15 18 22 25 30 34 38 39 42 38 nan nan nan nan nan nan nan nan nan nan
13 11 10 9 9 6 7 7 7 7 5 2 2 1 1 1 3 5 7 10 6 10 13 14 16 19 28 29 31 39 37 38 42 43 50 nan nan nan nan nan nan nan nan
15 13 11 8 7 4 4 6 6 7 4 1 2 1 2 2 0 2 4 6 7 9 9 12 14 17 24 28 31 37 39 48 49 51 55 55 55 nan nan nan nan nan nan
15 14 11 9 8 6 7 6 5 7 7 3 3 4 3 4 2 1 1 3 3 5 6 9 12 16 20 27 35 33 37 43 48 52 53 56 59 62 nan nan nan nan nan
14 14 12 12 11 10 10 7 7 6 7 6 5 4 3 4 5 4 3 6 6 1 3 9 13 18 19 27 32 37 40 45 45 51 54 56 61 64 61 nan nan nan nan
14 13 14 15 13 12 12 12 10 9 8 9 8 8 6 5 8 10 7 8 10 8 5 8 12 16 24 34 38 41 39 39 47 49 51 58 60 63 61 62 nan nan nan
11 16 16 17 16 15 14 15 15 11 11 9 8 9 8 8 7 13 13 10 10 10 10 9 12 18 24 21 37 40 39 44 44 52 59 61 64 64 58 62 64 nan nan
8 11 17 19 18 18 17 16 15 17 14 13 12 11 9 11 15 17 17 10 9 11 11 10 12 16 21 25 30 37 43 51 53 60 63 67 69 64 62 57 63 64 nan
6 9 13 16 18 20 19 18 16 18 19 17 16 15 12 11 18 21 22 13 8 6 12 14 16 18 20 28 32 34 41 50 52 62 61 68 72 66 60 57 64 64 nan
11 6 9 15 16 17 19 20 20 20 19 20 19 18 15 14 20 22 25 17 11 8 10 11 19 19 22 30 33 36 40 45 49 60 64 62 68 68 65 64 61 55 nan
8 7 8 9 15 18 20 23 24 24 24 22 19 21 18 19 19 26 27 20 15 13 13 13 16 17 25 32 36 35 38 41 51 57 61 65 69 66 64 66 65 nan nan
16 14 14 14 18 23 22 25 26 28 28 26 25 23 21 23 23 25 28 25 17 17 13 15 19 25 18 30 37 35 47 51 50 60 64 66 70 66 61 61 69 nan nan
23 22 24 24 25 24 28 28 30 30 31 30 28 24 23 24 23 26 29 27 21 24 20 22 32 28 26 31 30 41 50 49 52 58 63 67 71 65 61 57 nan nan nan
27 26 30 29 28 29 28 33 31 31 32 33 32 29 25 26 25 25 28 29 27 31 30 25 22 31 37 36 41 43 44 50 54 56 63 66 71 65 58 58 58 nan nan
35 29 29 24 26 32 32 29 31 31 32 35 35 33 31 28 26 27 27 35 32 32 37 34 32 31 33 38 39 41 44 50 52 57 64 67 71 64 57 54 nan nan nan
46 36 31 26 23 26 31 32 27 27 36 31 34 42 34 44 49 46 39 41 45 47 41 35 34 31 36 35 40 42 45 50 53 58 64 69 70 62 56 56 nan nan nan
49 38 35 30 26 30 30 28 30 27 26 29 31 37 37 38 51 50 51 52 48 42 34 32 30 34 35 35 38 41 46 51 55 60 66 70 67 58 54 54 nan nan nan
55 47 38 38 32 29 30 29 30 31 31 29 27 26 28 32 44 44 45 43 36 38 33 30 30 31 39 35 36 42 49 55 57 63 67 69 60 54 51 56 nan nan nan
63 57 54 48 37 36 29 28 30 30 29 28 31 39 43 48 48 44 42 32 29 29 27 29 29 29 38 35 40 46 51 55 59 64 65 59 53 52 52 55 nan nan nan
56 63 58 59 55 51 48 42 46 47 42 34 33 33 44 42 37 34 34 31 27 24 21 21 28 31 36 38 44 49 52 57 60 60 59 55 53 52 50 52 nan nan nan
54 57 55 59 56 54 53 53 50 50 51 51 50 42 30 29 29 27 28 25 23 20 21 23 29 35 38 42 47 52 54 58 58 58 59 55 53 48 45 nan nan nan nan
nan 61 56 57 57 55 56 57 54 53 50 48 43 44 46 46 42 39 42 41 32 30 31 34 34 39 41 49 52 56 57 57 57 57 55 51 47 45 nan nan nan nan nan
nan nan nan nan nan 51 57 59 58 54 53 53 51 51 51 52 48 42 41 42 41 42 43 41 42 46 48 51 52 52 55 55 54 56 52 48 45 46 nan nan nan nan nan
nan nan nan nan nan nan nan nan 57 62 65 65 63 61 58 59 50 43 46 45 44 43 44 44 43 40 47 45 40 41 44 48 53 55 52 45 43 nan nan nan nan nan nan
nan nan nan nan nan nan nan nan nan nan nan nan nan nan 65 65 74 56 48 46 42 40 43 44 38 37 36 33 32 37 44 49 49 52 49 nan 48 49 nan nan nan nan nan
nan nan nan nan nan nan nan nan nan nan nan nan nan nan nan 70 62 59 54 51 45 42 44 41 36 30 27 31 36 40 48 43 45 45 48 48 45 45 nan nan nan nan nan
Wind_Direction
238 243 241 234 217 195 191 216 203 183 208 157 179 168 155 103 79 87 120 133 84 69 56 50 35 33 30 27 17 18 9 15 17 nan nan nan nan nan nan nan nan nan nan
249 239 249 245 235 224 181 214 233 210 194 185 124 116 143 112 100 78 107 129 91 73 59 35 29 19 22 20 16 12 4 13 10 8 1 nan nan nan nan nan nan nan nan
253 258 253 255 262 245 229 188 218 225 203 197 250 244 325 334 126 102 139 132 111 83 56 37 26 16 20 12 10 13 13 10 7 5 2 359 360 nan nan nan nan nan nan
256 259 258 271 272 269 242 249 213 248 263 265 268 274 302 323 292 189 187 207 147 95 48 27 18 11 7 6 13 15 10 5 359 1 359 358 355 351 nan nan nan nan nan
253 256 262 260 256 254 258 248 262 268 282 277 294 317 316 330 305 295 255 238 244 258 31 9 5 4 347 0 3 7 5 358 358 358 356 353 353 351 349 nan nan nan nan
244 256 255 258 255 257 253 260 254 263 277 284 304 302 308 321 328 319 290 263 275 284 297 355 347 343 340 349 354 9 359 3 356 358 353 356 350 350 348 348 nan nan nan
236 254 253 253 258 258 258 255 261 265 265 282 292 305 308 313 311 316 317 290 275 277 279 301 320 319 328 353 355 1 356 352 9 355 356 350 348 348 348 348 346 nan nan
273 254 260 262 262 259 259 262 262 263 268 267 276 283 287 293 295 306 311 314 305 289 294 284 299 311 325 339 336 358 357 359 350 358 359 351 347 345 344 349 346 347 nan
312 304 287 278 268 266 268 268 266 265 266 267 268 274 282 278 292 302 299 316 329 307 282 287 297 307 319 334 347 355 352 352 348 349 349 344 337 341 342 341 336 338 nan
353 341 306 293 279 268 266 266 263 263 261 260 264 268 274 271 282 295 299 305 324 297 290 300 307 323 342 338 344 345 350 345 350 344 341 340 344 342 340 344 344 347 nan
286 285 274 277 278 265 258 253 253 258 258 263 259 267 274 276 276 288 298 297 302 298 293 287 283 323 359 336 336 341 341 338 339 338 336 341 343 341 343 343 343 nan nan
281 297 300 277 264 266 260 257 255 253 255 258 261 265 267 278 284 288 299 310 295 285 279 278 265 254 302 320 322 326 324 324 324 333 335 341 339 340 340 343 346 nan nan
267 279 288 281 268 263 266 262 258 256 252 257 258 257 260 267 275 302 299 301 303 287 282 265 274 272 291 301 309 317 320 328 331 334 338 339 338 338 337 343 nan nan nan
268 279 282 279 269 267 264 266 261 260 258 253 253 258 256 264 266 267 277 277 276 279 279 279 279 270 278 286 300 315 323 328 333 334 335 335 336 335 338 339 340 nan nan
267 274 276 276 276 264 257 258 266 263 262 260 254 249 249 255 261 269 272 277 274 286 288 289 291 286 295 300 305 314 321 326 331 331 331 332 332 338 338 338 nan nan nan
244 267 266 267 274 267 259 255 246 256 256 249 242 243 246 246 251 260 262 268 273 278 275 280 289 289 295 296 306 313 319 324 326 328 327 329 333 335 336 338 nan nan nan
242 241 261 263 271 273 264 252 257 263 266 269 259 252 252 248 257 255 257 265 270 269 269 267 273 282 289 291 299 310 316 320 321 321 324 327 331 334 333 333 nan nan nan
234 229 240 262 266 262 258 257 252 250 258 261 263 259 259 259 262 264 266 264 262 266 267 271 277 280 290 297 300 306 309 312 318 321 324 326 329 329 329 331 nan nan nan
231 231 234 235 244 253 245 248 246 244 240 238 248 248 254 251 255 258 263 255 258 264 274 284 285 288 290 295 297 304 307 310 314 320 325 326 328 328 334 334 nan nan nan
232 230 234 238 237 234 227 223 229 229 226 230 233 237 251 252 252 254 257 259 265 271 278 285 284 286 288 294 298 301 304 309 314 320 326 324 324 329 333 334 nan nan nan
231 233 226 236 238 236 231 230 229 227 224 225 230 226 233 243 239 255 265 268 268 263 263 269 275 283 289 294 300 303 305 308 314 320 322 322 324 329 333 nan nan nan nan
nan 238 240 234 232 235 234 232 227 230 227 227 224 224 219 222 207 215 224 236 249 265 260 263 275 284 292 294 299 301 303 308 314 321 320 321 324 331 nan nan nan nan nan
nan nan nan nan nan 236 237 233 229 226 224 226 226 224 228 226 201 210 225 235 240 249 257 266 271 282 287 294 306 309 303 308 315 318 316 321 327 326 nan nan nan nan nan
nan nan nan nan nan nan nan nan 236 236 229 223 226 225 224 238 237 222 228 237 243 251 260 265 270 283 292 302 313 311 318 316 314 320 321 318 323 nan nan nan nan nan nan
nan nan nan nan nan nan nan nan nan nan nan nan nan nan 237 238 238 228 228 234 241 252 257 263 269 277 287 305 311 308 305 308 314 315 315 nan 316 319 nan nan nan nan nan
nan nan nan nan nan nan nan nan nan nan nan nan nan nan nan 236 241 242 234 233 236 243 247 254 262 265 270 293 308 309 310 312 314 313 312 308 312 316 nan nan nan nan nan